GW3509 Weather Reports


time (UTC)temp
F
wind
direction
speed
knots
gust
knots
rain 1hr
in
rain 24hr
in
rain mn
in
humidity
%
barometer
mb
20260906145443 86 139 0.9 0.9 0.00 0.00 0.00 72 1012.0
20260906144932 86 156 0.9 1.7 0.00 0.00 0.00 73 1011.9
20260906144427 85 108 0.9 0.9 0.00 0.00 0.00 73 1011.9
20260906143923 84 167 0.9 1.7 0.00 0.00 0.00 75 1011.8
20260906143418 84 30 2.6 2.6 0.00 0.00 0.00 73 1011.7
20260906142914 83 190 0.9 1.7 0.00 0.00 0.00 76 1011.6
20260906142414 83 119 0.9 0.9 0.00 0.00 0.00 80 1011.5
20260906141914 82 90 0.0 0.0 0.00 0.00 0.00 80 1011.9
20260906141408 81 81 0.9 0.9 0.00 0.00 0.00 83 1011.7
20260906140907 81 144 2.6 4.3 0.00 0.00 0.00 84 1011.7
20260906140402 81 347 1.7 1.7 0.00 0.00 0.00 84 1011.9
20260906135900 80 218 0.9 0.9 0.00 0.00 0.00 85 1011.7
20260906135354 79 74 0.0 0.0 0.00 0.00 0.00 87 1011.7
20260906134850 79 80 0.0 0.0 0.00 0.00 0.00 87 1011.9
20260906134345 78 113 0.0 0.0 0.00 0.00 0.00 91 1011.6
20260906133841 78 90 0.0 0.9 0.00 0.00 0.00 92 1012.0
20260906133336 78 132 0.9 0.9 0.00 0.00 0.00 91 1011.9
20260906132831 77 81 0.0 0.0 0.00 0.00 0.00 92 1011.9
20260906132321 77 86 0.0 0.0 0.00 0.00 0.00 93 1011.7
20260906131816 76 83 0.0 0.0 0.00 0.00 0.00 94 1011.7
20260906131311 76 89 0.0 0.0 0.00 0.00 0.00 96 1011.8
20260906130807 76 100 0.0 0.0 0.00 0.00 0.00 96 1011.7
20260906130307 75 78 0.0 0.0 0.00 0.00 0.00 98 1011.8
20260906125805 75 104 0.0 0.0 0.00 0.00 0.00 98 1011.8
20260906125306 75 71 0.0 0.0 0.00 0.00 0.00 99 1011.9
20260906124758 74 97 0.0 0.0 0.00 0.00 0.00 99 1011.7
20260906124255 74 85 0.0 0.0 0.00 0.00 0.00 99 1011.7
20260906123753 74 86 0.0 0.0 0.00 0.00 0.00 99 1011.7
20260906123248 74 82 0.0 0.0 0.00 0.00 0.00 99 1011.6
20260906122748 73 97 0.0 0.0 0.00 0.00 0.00 99 1011.4
20260906122243 73 80 0.0 0.0 0.00 0.00 0.00 99 1011.3
20260906121740 73 96 0.0 0.0 0.00 0.00 0.00 99 1011.3
20260906121236 73 79 0.0 0.0 0.00 0.00 0.00 99 1011.2
20260906120731 73 84 0.0 0.0 0.00 0.00 0.00 99 1011.1
20260906120228 73 76 0.0 0.0 0.00 0.00 0.00 99 1011.1
20260906115723 73 88 0.0 0.0 0.00 0.00 0.00 99 1011.1
20260906115218 73 84 0.0 0.0 0.00 0.00 0.00 99 1011.2
20260906114717 73 77 0.0 0.0 0.00 0.00 0.00 99 1011.1
20260906114212 74 81 0.0 0.0 0.00 0.00 0.00 99 1010.9
20260906113708 74 82 0.0 0.0 0.00 0.00 0.00 99 1011.3
20260906113207 74 82 0.0 0.0 0.00 0.00 0.00 99 1010.9
20260906112706 74 74 0.0 0.0 0.00 0.00 0.00 99 1011.0
20260906112203 74 81 0.0 0.0 0.00 0.00 0.00 99 1010.9
20260906111702 74 79 0.0 0.0 0.00 0.00 0.00 98 1010.8
20260906111157 75 89 0.0 0.0 0.00 0.00 0.00 98 1010.9
20260906110652 75 109 0.9 0.9 0.00 0.00 0.00 98 1010.6
20260906110148 75 128 0.0 0.0 0.00 0.00 0.00 98 1010.6
20260906105642 75 121 0.9 0.9 0.00 0.00 0.00 98 1010.7
20260906105138 75 128 0.9 0.9 0.00 0.00 0.00 98 1010.7
20260906104637 75 138 0.9 0.9 0.00 0.00 0.00 98 1010.9
20260906104131 75 81 0.0 0.0 0.00 0.00 0.00 98 1010.8
20260906103629 75 74 0.0 0.0 0.00 0.00 0.00 98 1010.5
20260906103124 75 99 0.0 0.0 0.00 0.00 0.00 98 1010.7
20260906102619 76 84 0.0 0.0 0.00 0.00 0.00 97 1010.5
20260906102114 76 93 0.0 0.0 0.00 0.00 0.00 97 1010.5
20260906101608 76 143 0.9 0.9 0.00 0.00 0.00 98 1010.7
20260906101103 76 141 0.9 0.9 0.00 0.00 0.00 98 1010.4
20260906100558 76 86 0.0 0.9 0.00 0.00 0.00 98 1010.5
20260906100053 77 175 1.7 1.7 0.00 0.00 0.00 98 1010.4
20260906095553 76 73 0.0 0.0 0.00 0.00 0.00 97 1010.4
20260906095048 77 121 0.9 0.9 0.00 0.00 0.00 98 1010.3
20260906094547 76 88 0.9 0.9 0.00 0.00 0.00 98 1010.5
20260906094044 76 198 0.9 1.7 0.00 0.00 0.00 99 1010.3
20260906093539 77 81 0.0 0.0 0.00 0.00 0.00 99 1010.2
20260906093034 76 102 0.0 0.0 0.00 0.00 0.00 98 1010.0
20260906092529 77 85 0.0 0.0 0.00 0.00 0.00 98 1010.0
20260906092024 77 91 0.0 0.0 0.00 0.00 0.00 98 1009.8
20260906091520 77 89 0.0 0.9 0.00 0.00 0.00 98 1010.0
20260906091016 77 79 0.0 0.0 0.00 0.00 0.00 98 1010.0
20260906090516 77 104 0.0 0.0 0.00 0.00 0.00 97 1009.9
20260906090011 77 73 0.0 0.0 0.00 0.00 0.00 97 1010.1
20260906085510 77 92 0.0 0.0 0.00 0.00 0.00 97 1009.6
20260906085010 78 93 0.0 0.0 0.00 0.00 0.00 96 1009.8
20260906084509 78 101 0.0 0.0 0.00 0.00 0.00 96 1009.9
20260906084008 77 65 0.9 0.9 0.00 0.00 0.00 97 1009.8
20260906083504 77 51 1.7 1.7 0.00 0.00 0.00 98 1009.7
20260906083003 77 78 0.0 0.0 0.00 0.00 0.00 98 1010.0
20260906082459 76 70 0.9 0.9 0.00 0.00 0.00 98 1009.9
20260906081954 76 86 0.0 0.0 0.00 0.00 0.00 99 1009.8
20260906081449 76 73 0.0 0.0 0.00 0.00 0.00 99 1009.7
20260906080945 76 81 0.0 0.0 0.00 0.00 0.00 99 1009.7
20260906080443 76 88 0.0 0.0 0.00 0.00 0.00 99 1009.8
20260906075942 75 80 0.0 0.0 0.00 0.00 0.00 99 1009.7
20260906075437 75 76 0.0 0.0 0.00 0.00 0.00 99 1009.6
20260906074932 75 71 0.0 0.0 0.00 0.00 0.00 99 1009.6
20260906074426 75 83 0.0 0.0 0.00 0.00 0.00 99 1009.5
20260906073925 75 72 0.0 0.0 0.00 0.00 0.00 99 1009.5
20260906073420 75 94 0.0 0.0 0.00 0.00 0.00 99 1009.4
20260906072916 75 95 0.0 0.0 0.00 0.00 0.00 99 1009.5
20260906072412 75 82 0.0 0.0 0.00 0.00 0.00 99 1009.6
20260906071908 75 84 0.0 0.0 0.00 0.00 0.00 99 1009.6
20260906071403 75 97 0.0 0.0 0.00 0.00 0.00 99 1009.6
20260906070858 75 97 0.0 0.0 0.00 0.00 0.00 99 1009.6
20260906070354 75 105 0.0 0.0 0.00 0.00 0.00 99 1009.8
20260906065850 75 108 0.0 0.0 0.00 0.00 0.00 99 1009.6
20260906065344 75 98 0.0 0.0 0.00 0.00 0.00 99 1009.8
20260906064840 75 88 0.0 0.0 0.00 0.00 0.00 99 1009.9
20260906064337 75 79 0.0 0.0 0.00 0.00 0.00 99 1010.0
20260906063831 75 75 0.0 0.0 0.00 0.00 0.00 99 1009.9
20260906063327 75 87 0.0 0.0 0.00 0.00 0.00 99 1010.2
20260906062822 75 96 0.0 0.0 0.00 0.00 0.00 99 1009.9
20260906062321 75 80 0.0 0.0 0.00 0.00 0.00 99 1010.1
20260906061816 75 79 0.0 0.0 0.00 0.00 0.00 98 1010.1
20260906061312 75 79 0.0 0.0 0.00 0.00 0.00 98 1010.2
20260906060807 75 83 0.0 0.0 0.00 0.00 0.00 98 1009.9
20260906060305 75 74 0.0 0.0 0.00 0.00 0.00 98 1010.2
20260906055800 75 82 0.0 0.0 0.00 0.00 0.00 98 1010.1
20260906055255 75 94 0.0 0.0 0.00 0.00 0.00 98 1010.2
20260906054750 76 81 0.0 0.0 0.00 0.00 0.00 98 1010.1
20260906054246 76 78 0.0 0.0 0.00 0.00 0.00 98 1010.0
20260906053743 76 83 0.0 0.0 0.00 0.00 0.00 98 1010.0
20260906053238 76 85 0.0 0.0 0.00 0.00 0.00 98 1010.0
20260906052733 76 84 0.0 0.0 0.00 0.00 0.00 98 1009.9
20260906052229 76 81 0.0 0.0 0.00 0.00 0.00 98 1009.9
20260906051726 76 93 0.0 0.0 0.00 0.00 0.00 98 1009.9
20260906051225 76 95 0.0 0.0 0.00 0.00 0.00 98 1009.7
20260906050720 76 82 0.0 0.0 0.00 0.00 0.00 97 1009.9
20260906050215 76 85 0.0 0.0 0.00 0.00 0.00 97 1009.9
20260906045713 76 82 0.0 0.0 0.00 0.00 0.00 97 1009.9
20260906045209 76 77 0.0 0.0 0.00 0.00 0.00 97 1009.6
20260906044705 76 85 0.0 0.0 0.00 0.00 0.00 97 1009.6
20260906044159 77 83 0.0 0.0 0.00 0.00 0.00 96 1009.7
20260906043656 77 83 0.0 0.0 0.00 0.00 0.00 96 1009.7
20260906043151 77 79 0.0 0.0 0.00 0.00 0.00 96 1009.7
20260906042651 77 72 0.0 0.0 0.00 0.00 0.00 96 1009.6
20260906042151 77 78 0.0 0.0 0.00 0.00 0.00 96 1009.9
20260906041647 77 82 0.0 0.0 0.00 0.00 0.00 95 1009.4
20260906041142 77 88 0.0 0.0 0.00 0.00 0.00 95 1009.7
20260906040637 77 89 0.0 0.0 0.00 0.00 0.00 95 1009.8
20260906040133 77 83 0.0 0.0 0.00 0.00 0.00 94 1009.7
20260906035628 78 82 0.0 0.0 0.00 0.00 0.00 94 1009.7
20260906035123 78 83 0.0 0.0 0.00 0.00 0.00 93 1009.6
20260906034623 78 79 0.0 0.0 0.00 0.00 0.00 93 1009.5
20260906034118 78 87 0.0 0.0 0.00 0.00 0.00 93 1009.4
20260906033608 78 99 0.0 0.0 0.00 0.00 0.00 92 1009.6
20260906033102 78 92 0.0 0.0 0.00 0.00 0.00 92 1009.5
20260906032559 78 80 0.0 0.0 0.00 0.00 0.00 92 1009.3
20260906032054 78 99 0.0 0.0 0.00 0.00 0.00 92 1009.2
20260906031549 78 70 0.0 0.0 0.00 0.00 0.00 92 1009.5
20260906031045 78 76 0.0 0.0 0.00 0.00 0.00 92 1009.5
20260906030544 78 74 0.0 0.0 0.00 0.00 0.00 92 1009.2
20260906030043 78 80 0.0 0.0 0.00 0.00 0.00 91 1009.3
20260906025538 78 90 0.0 0.0 0.00 0.00 0.00 91 1009.3
20260906025036 79 83 0.0 0.0 0.00 0.00 0.00 91 1009.1
20260906024531 79 74 0.0 0.0 0.00 0.00 0.00 90 1009.1
20260906024025 79 66 0.0 0.0 0.00 0.00 0.00 90 1009.1
20260906023521 79 79 0.0 0.0 0.00 0.00 0.00 89 1008.9
20260906023016 80 79 0.0 0.0 0.00 0.00 0.00 89 1008.8
20260906022511 80 91 0.0 0.0 0.00 0.00 0.00 88 1008.8
20260906022007 80 82 0.0 0.0 0.00 0.00 0.00 88 1008.6
20260906021503 80 81 0.0 0.0 0.00 0.00 0.00 87 1008.8
20260906020957 80 75 0.0 0.0 0.00 0.00 0.00 86 1008.8
20260906020450 80 92 0.0 0.0 0.00 0.00 0.00 86 1008.6
20260906015949 81 76 0.0 0.0 0.00 0.00 0.00 86 1008.3
20260906015444 81 86 0.0 0.0 0.00 0.00 0.00 85 1008.2
20260906014943 81 78 0.0 0.0 0.00 0.00 0.00 84 1008.1
20260906014438 81 73 0.0 0.0 0.00 0.00 0.00 84 1008.2
20260906013935 81 89 0.0 0.0 0.00 0.00 0.00 83 1008.0
20260906013430 82 81 0.0 0.0 0.00 0.00 0.00 82 1008.1
20260906012926 82 112 0.0 0.0 0.00 0.00 0.00 82 1008.0
20260906012426 82 102 0.0 0.0 0.00 0.00 0.00 82 1007.9
20260906011925 82 82 0.0 0.0 0.00 0.00 0.00 80 1007.8
20260906011420 83 83 0.0 0.0 0.00 0.00 0.00 78 1007.9
20260906010915 83 80 0.0 0.0 0.00 0.00 0.00 77 1007.8
20260906010411 84 81 0.0 0.0 0.00 0.00 0.00 76 1007.5
20260906005907 84 81 0.0 0.0 0.00 0.00 0.00 74 1007.9
20260906005406 85 80 0.0 0.0 0.00 0.00 0.00 73 1007.6
20260906004904 86 80 0.0 0.0 0.00 0.00 0.00 72 1007.5
20260906004359 86 80 0.0 0.0 0.00 0.00 0.00 70 1007.5
20260906003854 87 78 0.0 0.0 0.00 0.00 0.00 70 1007.3
20260906003349 87 73 0.0 0.0 0.00 0.00 0.00 68 1007.5
20260906002845 88 64 0.0 0.0 0.00 0.00 0.00 67 1007.5
20260906002344 88 61 0.0 0.0 0.00 0.00 0.00 66 1007.6
20260906001840 89 66 0.0 0.0 0.00 0.00 0.00 65 1007.7
20260906001335 89 64 0.0 0.0 0.00 0.00 0.00 64 1007.6
20260906000830 90 58 0.0 0.9 0.00 0.00 0.00 64 1007.5
20260906000326 90 58 0.0 0.9 0.00 0.00 0.00 63 1007.5
20260905235826 91 81 0.0 0.0 0.00 0.00 0.00 60 1007.6
20260905235325 91 77 0.0 0.0 0.00 0.00 0.00 59 1007.5
20260905234821 92 77 0.0 0.0 0.00 0.00 0.00 60 1007.6
20260905234316 92 87 0.0 0.0 0.00 0.00 0.00 58 1007.7
20260905233811 93 82 0.0 0.0 0.00 0.00 0.00 56 1007.8
20260905233306 94 93 0.0 0.0 0.00 0.00 0.00 54 1007.9
20260905232805 95 39 0.9 0.9 0.00 0.00 0.00 52 1007.8
20260905232305 96 52 0.9 0.9 0.00 0.00 0.00 50 1007.8
20260905231757 96 96 0.9 0.9 0.00 0.00 0.00 48 1007.7
20260905231252 96 66 0.0 0.0 0.00 0.00 0.00 47 1007.5
20260905230748 97 51 0.9 0.9 0.00 0.00 0.00 47 1007.5
20260905230246 97 101 0.0 0.0 0.00 0.00 0.00 47 1007.6
20260905225746 97 102 0.9 0.9 0.00 0.00 0.00 46 1007.7
20260905225241 98 66 0.0 0.9 0.00 0.00 0.00 45 1007.6
20260905224740 98 106 0.0 0.9 0.00 0.00 0.00 44 1007.6
20260905224236 98 71 0.9 0.9 0.00 0.00 0.00 43 1007.7
20260905223731 98 334 0.9 1.7 0.00 0.00 0.00 44 1007.6
20260905223228 99 187 2.6 2.6 0.00 0.00 0.00 42 1007.7
20260905222724 98 93 0.0 0.0 0.00 0.00 0.00 44 1007.9
20260905222223 99 177 0.9 0.9 0.00 0.00 0.00 45 1007.6
20260905221719 98 79 0.9 0.9 0.00 0.00 0.00 45 1007.5
20260905221216 99 75 0.9 1.7 0.00 0.00 0.00 44 1007.6
20260905220711 100 120 0.9 0.9 0.00 0.00 0.00 42 1007.8
20260905220207 100 52 0.9 0.9 0.00 0.00 0.00 41 1007.7
20260905215706 101 4 0.9 1.7 0.00 0.00 0.00 42 1007.8
20260905215202 101 251 0.9 0.9 0.00 0.00 0.00 42 1007.7
20260905214658 101 278 0.9 0.9 0.00 0.00 0.00 43 1007.8
20260905214153 102 37 0.9 0.9 0.00 0.00 0.00 42 1007.6
20260905213648 101 87 0.9 1.7 0.00 0.00 0.00 43 1007.5
20260905213144 101 67 0.9 1.7 0.00 0.00 0.00 42 1007.7
20260905212639 102 301 1.7 1.7 0.00 0.00 0.00 42 1007.4
20260905212138 102 317 2.6 2.6 0.00 0.00 0.00 41 1007.8
20260905211633 102 272 3.5 4.3 0.00 0.00 0.00 41 1007.5
20260905211128 103 193 1.7 2.6 0.00 0.00 0.00 39 1007.6
20260905210625 104 247 0.9 1.7 0.00 0.00 0.00 38 1007.6
20260905210119 103 54 0.9 0.9 0.00 0.00 0.00 37 1007.7
20260905205618 103 318 0.9 0.9 0.00 0.00 0.00 39 1007.8
20260905205112 102 122 0.9 1.7 0.00 0.00 0.00 39 1007.9
20260905204612 101 309 2.6 4.3 0.00 0.00 0.00 43 1008.0
20260905204107 99 48 1.7 1.7 0.00 0.00 0.00 45 1008.2
20260905203602 99 283 1.7 4.3 0.00 0.00 0.00 44 1008.0
20260905203057 101 23 1.7 1.7 0.00 0.00 0.00 41 1007.9
20260905202552 102 201 0.9 0.9 0.00 0.00 0.00 36 1007.9
20260905202047 104 69 1.7 1.7 0.00 0.00 0.00 37 1007.8
20260905201538 105 63 4.3 6.1 0.00 0.00 0.00 36 1008.0
20260905201037 104 60 1.7 1.7 0.00 0.00 0.00 36 1008.0
20260905200532 102 55 2.6 2.6 0.00 0.00 0.00 37 1008.1
20260905200032 102 22 0.9 0.9 0.00 0.00 0.00 41 1008.3
20260905195526 103 79 0.0 0.0 0.00 0.00 0.00 40 1008.1
20260905195021 101 127 0.9 0.9 0.00 0.00 0.00 39 1008.3
20260905194515 102 299 1.7 1.7 0.00 0.00 0.00 39 1008.3
20260905194010 102 73 0.9 1.7 0.00 0.00 0.00 38 1008.3
20260905193510 104 225 2.6 2.6 0.00 0.00 0.00 38 1008.4
20260905193005 104 57 2.6 2.6 0.00 0.00 0.00 37 1009.0
20260905192500 104 43 0.9 1.7 0.00 0.00 0.00 38 1008.5
20260905191956 104 69 1.7 2.6 0.00 0.00 0.00 37 1008.6
20260905191450 104 137 0.9 0.9 0.00 0.00 0.00 37 1008.8
20260905190949 104 181 0.0 0.0 0.00 0.00 0.00 37 1008.8
20260905190447 103 81 0.9 0.9 0.00 0.00 0.00 37 1008.9
20260905185946 105 106 2.6 4.3 0.00 0.00 0.00 36 1009.0
20260905185441 104 57 0.0 0.9 0.00 0.00 0.00 39 1009.1
20260905184940 104 57 1.7 1.7 0.00 0.00 0.00 37 1009.1
20260905184439 104 86 1.7 1.7 0.00 0.00 0.00 37 1009.1
20260905183938 104 127 0.9 0.9 0.00 0.00 0.00 37 1009.3
20260905183433 104 82 0.9 0.9 0.00 0.00 0.00 37 1009.4
20260905182929 103 308 1.7 2.6 0.00 0.00 0.00 40 1009.4
20260905182428 102 82 0.9 0.9 0.00 0.00 0.00 40 1009.3
20260905181924 102 96 0.9 0.9 0.00 0.00 0.00 41 1009.6
20260905181423 104 113 1.7 1.7 0.00 0.00 0.00 39 1009.3
20260905180923 103 84 2.6 2.6 0.00 0.00 0.00 40 1009.5
20260905180418 102 147 2.6 2.6 0.00 0.00 0.00 42 1009.5
20260905175912 100 103 1.7 1.7 0.00 0.00 0.00 43 1009.5
20260905175412 101 26 0.9 0.9 0.00 0.00 0.00 42 1009.7
20260905174907 103 87 0.0 0.9 0.00 0.00 0.00 41 1009.4
20260905174403 103 338 2.6 2.6 0.00 0.00 0.00 40 1009.6
20260905173858 103 341 2.6 2.6 0.00 0.00 0.00 41 1009.5
20260905173355 102 109 0.9 1.7 0.00 0.00 0.00 40 1009.8
20260905172849 102 83 0.0 0.9 0.00 0.00 0.00 42 1009.8
20260905172347 102 17 0.9 1.7 0.00 0.00 0.00 42 1009.8
20260905171844 101 110 0.9 0.9 0.00 0.00 0.00 44 1009.9
20260905171340 101 79 0.9 1.7 0.00 0.00 0.00 43 1010.1
20260905170836 101 183 1.7 1.7 0.00 0.00 0.00 50 1009.9
20260905170332 101 188 3.5 4.3 0.00 0.00 0.00 45 1010.0
20260905165831 100 190 3.5 5.2 0.00 0.00 0.00 45 1010.2
20260905165327 100 66 0.9 0.9 0.00 0.00 0.00 45 1010.2
20260905164826 100 45 1.7 1.7 0.00 0.00 0.00 46 1010.5
20260905164321 99 250 0.9 1.7 0.00 0.00 0.00 47 1010.4
20260905163817 99 187 0.9 0.9 0.00 0.00 0.00 53 1010.4
20260905163313 99 194 3.5 4.3 0.00 0.00 0.00 48 1010.5
20260905162809 99 32 3.5 5.2 0.00 0.00 0.00 47 1010.5
20260905162305 99 73 0.9 0.9 0.00 0.00 0.00 49 1010.4
20260905161757 98 67 1.7 1.7 0.00 0.00 0.00 50 1010.5
20260905161256 97 94 0.9 1.7 0.00 0.00 0.00 49 1010.4
20260905160755 97 130 1.7 1.7 0.00 0.00 0.00 51 1010.4
20260905160249 97 66 1.7 1.7 0.00 0.00 0.00 50 1010.5
20260905155744 96 233 0.9 1.7 0.00 0.00 0.00 51 1010.5
20260905155243 96 76 0.9 0.9 0.00 0.00 0.00 53 1010.5
20260905154737 96 120 0.9 1.7 0.00 0.00 0.00 54 1010.5
20260905154233 95 50 1.7 1.7 0.00 0.00 0.00 54 1010.6
20260905153728 95 10 2.6 2.6 0.00 0.00 0.00 55 1010.5
20260905153224 94 92 0.9 1.7 0.00 0.00 0.00 55 1010.6
20260905152719 93 69 0.9 0.9 0.00 0.00 0.00 59 1010.7
20260905152219 93 108 0.9 0.9 0.00 0.00 0.00 58 1010.7
20260905151713 93 224 2.6 4.3 0.00 0.00 0.00 57 1010.6
20260905151209 92 15 1.7 1.7 0.00 0.00 0.00 60 1010.7
20260905150704 91 74 1.7 1.7 0.00 0.00 0.00 61 1010.5
20260905150203 90 37 0.0 0.9 0.00 0.00 0.00 68 1010.5